Address 0xc87a4a18b6d398e8ec557b5cb3c50df6a8591aa7

 
Txn Hash
Block
From
To
Value [Txn Fee]
0x9da861a6d39a5ceface27f9ed60fcd4bcd7d74a61f0a824e93f28803216d067b81380502021-06-09 5:11:3612 days 20 hrs ago0xc87a4a18b6d398e8ec557b5cb3c50df6a8591aa7OUT0xe484d7952085791ba93c573dca5fc583d78c6a3a0.00395982 BNB0.000105
0xb1b64f31ff86e8e2433a5847d7f39dabcbddcbe17548b2060fe0662e5930a94779594292021-06-02 23:59:1619 days 2 hrs ago0xc87a4a18b6d398e8ec557b5cb3c50df6a8591aa7OUT NFTArt Finance: NFTART Token0 BNB0.00028459
0x128ad7938a3f3231c378a1256c7da434efcddf4c0e6c975548289893574403fd75602262021-05-20 1:48:5933 days 18 mins ago0xc87a4a18b6d398e8ec557b5cb3c50df6a8591aa7OUT PancakeSwap: Router v20 BNB0.00397591
0x1fb1118b038fcd850106ffd046f16026402d05f9931d52053319c67c39041b0275602032021-05-20 1:47:5033 days 20 mins ago0xc87a4a18b6d398e8ec557b5cb3c50df6a8591aa7OUT Moonshot: MOONSHOT Token0 BNB0.00022226
0x5804e643cd99acb63ee4c2495cb72ba8cc2d5eb6bb7e26238d6938f83c3f0ddb75601562021-05-20 1:45:2933 days 22 mins ago0xbe49eb83edc47aa3d66aa91745430dc1b05f1ee5 IN 0xc87a4a18b6d398e8ec557b5cb3c50df6a8591aa70.00854758 BNB0.000105
0x803b7bdee084ab678c7752ee1a92f9111c3392bf8df97daf46a643886237d1dd74768112021-05-17 3:13:3735 days 22 hrs ago0xc87a4a18b6d398e8ec557b5cb3c50df6a8591aa7OUT0xe484d7952085791ba93c573dca5fc583d78c6a3a0.432501120133843 BNB0.000105
0xb79691cd2685e0289932a1f41d83fefaf941b006adff05b004779d8cd179acbf74749922021-05-17 1:42:2336 days 25 mins ago0x422e46c850165101cfe89806a690623607e44bb8 IN 0xc87a4a18b6d398e8ec557b5cb3c50df6a8591aa70.209364470149135 BNB0.000105
0x61494612f7eb6fd88049b7e2aa2ea0ebcf2a3db3c2ec15af61d1fe0cd14be7f274749232021-05-17 1:38:5636 days 28 mins ago0xc87a4a18b6d398e8ec557b5cb3c50df6a8591aa7OUT0xe9b0adac77a5067e628fad94d2de8b7ffa608f7f0.193480208668705 BNB0.000105
0x89a93092868cdc4edc0a529004adc538617f64394dcea9b16f7ad9c29bda6cc074743192021-05-17 1:08:4436 days 59 mins ago0xc87a4a18b6d398e8ec557b5cb3c50df6a8591aa7OUT0x3c0278709dfee582b825736fafa02de98c786c980.03275765851663 BNB0.000105
0xcdac50796c720d26356001dcff78b3c96a8ef27d75968423c620ae0759b49c9274743002021-05-17 1:07:4736 days 1 hr ago0xc87a4a18b6d398e8ec557b5cb3c50df6a8591aa7OUT0xfead668566a7aba753eb4e0d051005ce52e8bbfe0.050232632544879 BNB0.000105
0x8b21372d7fb449bf66f0153b234bfd85a4a69226847ee81dea0e472f3630401174742752021-05-17 1:06:3236 days 1 hr ago0xc87a4a18b6d398e8ec557b5cb3c50df6a8591aa7OUT0x05d294263ac655a4b0557ecbd1d49f1979de43a30.083913516435124 BNB0.000105
0xbd7d340faced5808863fc4eb6ecc73ec83c288af385fac6215161809a89c8a8f74742262021-05-17 1:04:0536 days 1 hr ago0x422e46c850165101cfe89806a690623607e44bb8 IN 0xc87a4a18b6d398e8ec557b5cb3c50df6a8591aa70.574392471566322 BNB0.000105
0x9aca3dfa22cea93bee0c5805070aee44b32963559d3d3306c55c35026e61315a74738002021-05-17 0:42:0436 days 1 hr ago0xc87a4a18b6d398e8ec557b5cb3c50df6a8591aa7OUT0x3c0278709dfee582b825736fafa02de98c786c980.097832870556847 BNB0.000105
0x62a6120b9152fd4ba05f24ed2c257baf2d086ee1f3984f2c715c31c386b326b774729662021-05-16 23:59:2336 days 2 hrs ago0xc87a4a18b6d398e8ec557b5cb3c50df6a8591aa7OUT0xe484d7952085791ba93c573dca5fc583d78c6a3a0.1 BNB0.000105
0xda473102190b8b27c6e312920496ee765f57676e6c3ee7b019275dfbf1134db874727282021-05-16 23:47:2936 days 2 hrs ago0xc87a4a18b6d398e8ec557b5cb3c50df6a8591aa7OUT0xe484d7952085791ba93c573dca5fc583d78c6a3a0.03 BNB0.000105
0x6389a65f7b202d71ab4374f8617a5c5bfb5697631cd5bab075c3f9cf0794bad474727062021-05-16 23:46:2336 days 2 hrs ago0xc87a4a18b6d398e8ec557b5cb3c50df6a8591aa7OUT0x1d23fa499ceade3a25d31543356d7c6f946c7d230.065775827008051 BNB0.000105
0x2b3f6c3dd7949b30d8488280e60a3996c921655e9fe707f3005420220d508ce374726742021-05-16 23:44:4736 days 2 hrs ago0xc87a4a18b6d398e8ec557b5cb3c50df6a8591aa7OUT0x09475c58c92841f2c90cd23ae59804c99703cc9b0.093818345306748 BNB0.000105
0xac013446645b03f8849846d79cd829550f9ec71bea4206b86a9573f8d3f472da74725932021-05-16 23:40:4436 days 2 hrs ago0x422e46c850165101cfe89806a690623607e44bb8 IN 0xc87a4a18b6d398e8ec557b5cb3c50df6a8591aa70.397605237455372 BNB0.000105
0x0fe2b19e5dbd4a9ebf73b98a75df8b6487728d5c96fc5b3082bbe37e543040a274486072021-05-16 3:24:4436 days 22 hrs ago0xc87a4a18b6d398e8ec557b5cb3c50df6a8591aa7OUT0xbe49eb83edc47aa3d66aa91745430dc1b05f1ee50.029948325016524 BNB0.000105
0x5453f24865e096ea1434f87c418dda41cd69b0f43765be46723cfd68f5fa352e74348272021-05-15 15:50:0037 days 10 hrs ago0xc0365e129e7416005a7dcf4e39c43805a5cbb141 IN 0xc87a4a18b6d398e8ec557b5cb3c50df6a8591aa70.021476818338248 BNB0.000105
0x8b69b9e40dcb49ced4a56a7406ccc1d70c297533dcebe7afaf477740000a723174202642021-05-15 3:08:4137 days 22 hrs ago0xc87a4a18b6d398e8ec557b5cb3c50df6a8591aa7OUT wolf.finance: WOLF Token0 BNB0.000289095
0xed399c8e078859dcdf78e38a9ae2aa4a614f20d6a96424ee2e192b9cfd6da9e374202252021-05-15 3:06:4437 days 23 hrs ago0xc87a4a18b6d398e8ec557b5cb3c50df6a8591aa7OUT wolf.finance: WOLF Token0 BNB0.000288915
0x9800ede90f01f931c701051ea08d1ed114791c47a9c638b11c848ea9ec83e33474201882021-05-15 3:04:5337 days 23 hrs ago0xc87a4a18b6d398e8ec557b5cb3c50df6a8591aa7OUT PancakeSwap: Router v20.049130339944893 BNB0.000845695
0x3c9df7b8d36fe0ed39ea3b838255dbb0edf25f4ad57a4be2522bf88dd9fdae1074201312021-05-15 3:02:0237 days 23 hrs ago0xc0365e129e7416005a7dcf4e39c43805a5cbb141 IN 0xc87a4a18b6d398e8ec557b5cb3c50df6a8591aa70.058644112613814 BNB0.000105
0x5fdeccf4fbb80bed146486e400ca82b0d5e2d23d3c3586a06a3dec0c0871cb4a72627972021-05-09 6:37:2143 days 19 hrs ago0xc87a4a18b6d398e8ec557b5cb3c50df6a8591aa7OUT0xe484d7952085791ba93c573dca5fc583d78c6a3a0.00790354729993 BNB0.000105
[ Download CSV Export 
Latest 8 internal transactions
Parent Txn Hash Block From To Value
0x9800ede90f01f931c701051ea08d1ed114791c47a9c638b11c848ea9ec83e33474201882021-05-15 3:04:5337 days 23 hrs ago PancakeSwap: Router v20xc87a4a18b6d398e8ec557b5cb3c50df6a8591aa70.000486439009355381 BNB
0x884b96d4c8b71bb86a99ea953afd8c3c5413c862076c60af48bdd5a4299df27670843132021-05-02 22:30:3950 days 3 hrs ago PancakeSwap: Router v20xc87a4a18b6d398e8ec557b5cb3c50df6a8591aa70.000099999859632441 BNB
0x87fd495330ee67b5ccb34ae0293490f3c1f4d7e483ad83b9e0865749a2c2b1f670455312021-05-01 13:52:0051 days 12 hrs ago PancakeSwap: Router0xc87a4a18b6d398e8ec557b5cb3c50df6a8591aa70.000060019836869815 BNB
0xf08fa9f25d76c0d187e005b72c38e671c002ddf26d79357229e4da8b480c5b0c70451612021-05-01 13:33:3051 days 12 hrs ago PancakeSwap: Router0xc87a4a18b6d398e8ec557b5cb3c50df6a8591aa70.000120040077466943 BNB
0x73a8f117b9550f35be4ddcd0b3963a4aa2ea0d670b3cb1dde9be85aed8531d0170448762021-05-01 13:19:1551 days 12 hrs ago PancakeSwap: Router0xc87a4a18b6d398e8ec557b5cb3c50df6a8591aa70.000276646846489721 BNB
0xa44b744a736c4f07da432bd096ebd07bacaf5bc6b5fada0588df4d3280a3391a70443252021-05-01 12:51:4051 days 13 hrs ago PancakeSwap: Router0xc87a4a18b6d398e8ec557b5cb3c50df6a8591aa70.00055814096934074 BNB
0xb078719fea9ae0a0ef1f144b8f9d3fbbb252e5e6a3d772feae2bd04135afe42270396972021-05-01 8:59:3551 days 17 hrs ago PancakeSwap: Router v20xc87a4a18b6d398e8ec557b5cb3c50df6a8591aa70.000082407581175705 BNB
0x11dac37d571d9ff7547e2bbf47c56e07267ca9ea41bd90cda8667768d9b1263e67532942021-04-21 7:27:1261 days 18 hrs ago PancakeSwap: Router0xc87a4a18b6d398e8ec557b5cb3c50df6a8591aa70.000000000000009576 BNB
[ Download CSV Export 
Loading

Contract Name:
0 BNB

Compiler Version
0

Optimization Enabled:
0 BNB

Other Settings:
-NA-
Block Transaction Gas Used Reward
Age Block Fee Address BC Fee Address Voting Power Jailed Incoming
Block Uncle Number Difficulty Gas Used Reward
Loading
Loading
Make sure to use the "Vote Down" button for any spammy posts, and the "Vote Up" for interesting conversations.